Regional Weather Roundup
Issued by NWS

Home | Current Version | Previous Version | Text Only | Print | Product List | Glossary On
Versions: 1 2 3 4 5 6 7 8 9 10 11 12 13 14 15 16 17 18 19 20 21 22 23 24 25 26 27
000
ASUS44 KBMX 211610
RWRAL

ALABAMA REGIONAL WEATHER ROUNDUP
NATIONAL WEATHER SERVICE BIRMINGHAM AL
1100 AM CDT MON APR 21 2014

NOTE: "FAIR" INDICATES FEW OR NO CLOUDS BELOW 12,000 FEET
WITH NO SIGNIFICANT WEATHER AND/OR OBSTRUCTIONS TO VISIBILITY.

THE REMARK "TC" DENOTES TEMPERATURE IN DEGREES CELSIUS.

ALZ001>011-014-016>018-020-211700-
NORTH ALABAMA

CITY           SKY/WX    TMP DP  RH WIND       PRES   REMARKS
MUSCLE SHOALS  MOSUNNY   75  52  44 VRB7      30.11F
HUNTSVILLE     PTSUNNY   75  50  41 S8        30.11F
DECATUR        MOSUNNY   74  50  42 SW8       30.12F
HALEYVILLE     FAIR      73  52  47 VRB7      30.15S
GADSDEN        NOT AVBL
$$

ALZ012-013-022-023-030>036-040>044-211700-
WEST CENTRAL ALABAMA

CITY           SKY/WX    TMP DP  RH WIND       PRES   REMARKS
TUSCALOOSA     SUNNY     73  58  59 CALM      30.13F
$$

ALZ015-024>027-033>036-040>044-211700-
CENTRAL ALABAMA

CITY           SKY/WX    TMP DP  RH WIND       PRES   REMARKS
BIRMINGHAM     PTSUNNY   73  52  47 S6        30.15F
MONTGOMERY     SUNNY     72  56  57 CALM      30.15F
SHELBY CO ARPT SUNNY     72  56  57 VRB5      30.14F
MAXWELL AFB    SUNNY     74  61  62 CALM      30.15F
GREENVILLE     FAIR      71  53  52 VRB3      30.14F
$$

ALZ019-021-028-029-037-038-045>048-211700-
EAST CENTRAL ALABAMA

CITY           SKY/WX    TMP DP  RH WIND       PRES   REMARKS
ANNISTON       MOSUNNY   72  48  42 CALM      30.16F
ALEXANDER CITY SUNNY     76  48  37 SE8       30.16F
AUBURN         SUNNY     66  45  45 CALM      30.19F
$$

ALZ051>064-211700-
SOUTHWEST ALABAMA

CITY           SKY/WX    TMP DP  RH WIND       PRES   REMARKS
MOBILE         PTSUNNY   70  58  65 S8G17     30.15F
BROOKLEY FIELD SUNNY     68  56  65 SE6       30.17F
EVERGREEN      MOSUNNY   73  54  51 VRB5      30.16F
$$

ALZ049-050-065>069-211700-
SOUTHEAST ALABAMA

CITY           SKY/WX    TMP DP  RH WIND       PRES   REMARKS
DOTHAN         SUNNY     69  50  50 E5        30.19F
OZARK          SUNNY     70  52  53 VRB5      30.15F
TROY           SUNNY     72  49  44 MISG      30.16F
EUFAULA        FAIR      72  48  42 VRB3      30.14F
$$



USA.gov is the U.S. government's official web portal to all federal, state and local government web resources and services.